If you wish to contribute or participate in the discussions about articles you are invited to join SKYbrary as a registered user

 Actions

Le Touquet-Côte d'Opale Airport

From SKYbrary Wiki

LFAT
Airport
ICAO: LFAT – IATA: LTQ
Summary
Name Le Touquet-Côte d'Opale Airport
Region Europe
Territory France FR.gif
Location , Nord-Pas-de-Calais
Serving Le Tourquet
Elevation 10.973 m
36 ft
36 ft10.973 m
Type medium airport
Coordinates 50° 31' 2.59" N, 1° 37' 14.11" E
Runways
Designator Length Width Surface ROPS
6/24 0 m0 ft
0 m0 ft
UNK /
14/32 1850 m6,069.554 ft
40 m131.234 ft
ASP /


METAR
Observation LFAT 190930Z AUTO 26012KT 220V290 9999 SCT025/// SCT030/// ///CB 19/13 Q1016 TEMPO 26020G30KT SHRA
Station Le Touquet
Date/Time 19 August 2019 09:30:00
Wind direction 260°
Wind speed 12 kts
Lowest cloud amount scattered clouds
Temperature 19°C
Dew point 13°C
Humidity 68%
QNH 1016 hPa
Weather condition n/a